Погода в Нюбру

Швеция     56°44′35″N   15°54′17″E
темп.,
°C
ветер,
м/с
пор.,
м/с
влажн.,
%
обл.,
%
осадки,
мм/ч
давл.,
гПа
погр.,
м
18 апреля, вс
вс1823:00+3ссв41183100 0.0 1026314
02:00+3ссв3108660 0.0 1026256
05:00+4ссв3985100 0.0 1026235
08:00+7ссв48765 0.0 1026284
11:00+13св58595 0.0 1025658
14:00+14всв57555 0.0 1026821
17:00+13св58535 0.0 1025758
20:00+7св411738 0.0 1026350
19 апреля, пн
пн1923:00+4ссв3108566 0.0 1027260
02:00+3ссв3108859 0.0 1026231
05:00+2ссв399315 0.0 1026199
08:00+7св497015 0.0 1026306
11:00+12всв58525 0.0 1026664
14:00+14всв56410 0.0 10251201
17:00+12всв57450 0.0 10251214
20:00+7св39670 0.0 1025291
20 апреля, вт
вт2023:00+4ссв38865 0.0 1024175
02:00+3ссв26915 0.0 1023121
05:00+2с259184 0.0 1022106
08:00+7св246928 0.0 1021226
11:00+12в345348 0.1 10201284
14:00+14в334183 0.3 10181943
17:00+13в334044 0.0 10161651
20:00+7в22745 0.0 101626
21 апреля, ср
ср2123:00+4з11835 0.0 101510
02:00+4з11915 0.0 101411
05:00+4зсз229441 0.0 101223
08:00+9зсз246755 0.0 1011337
11:00+11зюз3356100 0.8 10091285
14:00+12ююз4449100 1.4 10081728
17:00+12ююз4542100 0.1 10071539
20:00+7з247298 0.1 1007138
22 апреля, чт
чт2223:00+3зсз239697 0.0 100961
02:00+3з119561 0.0 100911
05:00+3юз119498 0.0 101115
08:00+6вюв117894 0.0 1013376
11:00+9вюв346898 0.2 10151116
14:00+8юв3573100 0.7 1017857
17:00+8в4575100 0.4 1019944
20:00+5св2787100 0.8 1022746